THOR ABLESTAR DEB

Satellite information

Favourite Embed

Satellite Type and Status

DEBRISIN ORBIT

Key statistics

Satellite THOR ABLESTAR DEB at a glance.

Uptime

23544

Days in orbit

Revolutions

≈ 14.2

Per day

Orbit

LEO

Low Earth Orbit

Inclination

66.7

Latest

Satellite identification and parameters

Extended collection of information and parameters for THOR ABLESTAR DEB.

Object identification

Identified? True

Debris? True

Object name: THOR ABLESTAR DEB

International designator: 1961-015ES

Object number (NORAD): 417

Object ID (CCSDS): 417

Country: UNITED STATES OF AMERICA (US)

Current information (Y/N): Y

RCS size: SMALL

Orbital parameters

Period: 101.375 minutes

Inclination: 66.7458 deg

SMA: 7201.926 km

Apoapsis: 877.966 km

Periapsis: 769.617 km

RAAN: 332.0353 deg

Eccentricy: 0.00752221

Argument of periapsis: 239.8952 deg

Mean anomaly: 119.467 deg

Mean motion: 14.20462397 rev/day

Mean motion (dot): 0.00001023 rev/day2

B* drag term: 0.00050054571 1/REarth

Two-line elements (TLE)

Creation date: Dec. 12, 2025, 10:14 a.m.

Reference frame: TEME

Reference center: EARTH

Epoch: Dec. 12, 2025, 1:01 a.m. UTC

TLE line 0: 0 THOR ABLESTAR DEB

TLE line 1: 1 00417U 61015ES 25346.04290022 .00001023 00000-0 50055-3 0 9998

TLE line 2: 2 00417 66.7458 332.0353 0075222 239.8952 119.4670 14.20462397310915

Live tracking on map

Real-time ground track for satellite THOR ABLESTAR DEB.

In-orbit conjunctions

A list of the most updated potential collisions computed for object THOR ABLESTAR DEB.

Target Orbit TCA Probability of collision Miss distance Type
EYESAT A SSO 2025-03-02 18:23:05 0.0001536993 145.0 (m) PAYLOAD
SL-6 R/B SSO 2025-01-19 14:02:35 0.0001107073 436.0 (m) ROCKET BODY
CZ-6A DEB SSO 2024-10-06 15:09:22 0.0003307968 47.0 (m) DEBRIS

Associated space launch

THOR ABLESTAR DEB was lifted into orbit during the mission ‘Thor DM-21 Ablestar | Transit 4A & Injun-1 & Solrad 3’, on board a Thor DM-21 Ablestar space rocket.

The launch took place on June 29, 1961, 4:23 a.m. from Space Launch Complex 17B.

For more information about the launch, click the button.

Launch to space Thor DM-21 Ablestar | Transit 4A & Injun-1 & Solrad 3
Thor DM-21 Ablestar | Transit 4A & Injun-1 & Solrad 3

Agency: N/A

Status: Launch Successful

Launch date: June 29, 1961, 4:23 a.m. UTC

Rocket: Thor DM-21 Ablestar

Launch pad: Space Launch Complex 17B

Location: Cape Canaveral SFS, FL, USA

...

Latest news about this satellite

There are no fresh news available about this satellite. Check back as we update our databases every day.


Newsletter sign-up

Weekly statistics, charts and insights to help you stay on top of the space industry.